RH
86 92 92 82 66 67 74 82 77 70 64 61 61 59 69 76 67 77 67 71 71 83 88 84 96 92 91 89 85 84 79 83 82
81 87 89 87 68 60 68 78 76 78 68 63 59 63 55 69 69 70 68 67 74 84 78 88 88 88 90 85 83 82 85 84 84
79 85 87 84 72 62 60 69 76 74 68 64 63 60 51 68 69 78 70 74 74 86 90 82 81 82 80 85 82 87 86 86 90
65 78 87 85 81 74 66 66 71 74 68 63 59 60 55 61 67 72 75 67 77 84 69 79 85 83 85 87 88 87 87 91 91
82 73 72 80 84 82 79 74 70 68 69 65 61 58 58 52 60 68 68 68 74 90 89 78 88 90 90 91 87 83 81 84 85
90 86 85 83 79 83 86 82 80 76 71 68 64 60 56 56 54 65 69 65 68 78 89 86 91 92 94 92 87 85 82 78 78
95 92 88 89 89 89 89 87 84 86 82 73 66 65 56 53 49 64 69 66 65 77 88 87 86 95 96 97 90 89 92 93 89
71 83 90 89 89 92 94 93 91 86 86 84 78 71 70 68 56 62 64 65 60 68 74 76 82 83 95 96 95 95 95 96 96
34 43 66 80 82 93 93 94 93 94 89 87 84 74 68 67 56 53 56 62 60 63 63 66 84 77 80 84 95 94 96 95 93
32 30 31 35 49 87 81 83 91 94 91 84 92 85 79 70 61 52 53 54 56 60 63 68 91 95 97 97 92 88 90 94 94
35 35 34 32 32 34 38 55 79 79 92 91 88 84 87 81 74 56 49 48 52 55 60 67 86 90 94 97 96 88 82 84 83
40 40 39 37 37 37 36 38 37 67 69 82 91 87 81 77 74 73 63 53 47 49 54 60 66 81 91 93 96 92 90 85 83
49 48 47 48 48 45 42 41 41 41 42 61 62 61 76 79 81 82 82 70 56 49 50 55 59 61 78 91 90 88 90 92 86
56 56 55 54 52 51 51 48 46 44 43 42 44 56 66 77 76 79 80 81 80 64 50 50 52 55 61 81 89 91 91 85 91
67 66 64 63 66 63 57 57 53 50 46 46 46 44 42 50 67 76 72 75 81 82 63 54 54 57 62 58 83 91 90 87 85
76 73 71 70 74 75 73 69 65 59 53 51 46 44 44 44 64 67 69 66 72 75 79 78 60 59 69 64 60 71 70 71 74
73 71 75 73 74 72 70 70 74 71 66 63 62 73 56 43 41 47 55 59 72 76 75 80 90 82 72 65 61 66 76 80 88
76 74 74 73 72 75 80 80 78 80 72 68 70 81 88 74 57 60 67 76 79 81 88 85 95 95 87 82 75 75 80 89 84
77 76 75 78 81 88 88 86 89 86 86 78 73 71 71 81 73 56 56 62 71 80 83 84 82 80 83 86 95 99 94 98 96
76 77 77 78 78 75 75 76 73 74 83 84 83 77 77 71 87 82 74 58 62 62 62 71 74 73 74 83 85 81 82 84 87
Wind_Speed
3 6 6 3 2 2 2 2 1 1 1 1 2 4 4 4 5 4 2 4 4 5 5 5 7 8 7 8 8 8 8 8 8
4 3 7 5 4 4 4 5 4 3 3 2 3 4 7 5 2 4 6 5 3 5 3 6 5 5 6 5 5 5 5 6 6
4 2 6 7 6 7 7 7 7 7 6 5 4 6 8 8 3 3 7 6 6 8 6 6 6 5 4 4 3 3 3 3 3
7 8 9 10 10 9 9 10 10 10 9 8 7 7 9 11 7 4 9 9 6 8 8 8 6 7 6 6 4 4 3 2 0
11 11 13 14 13 13 12 12 12 12 12 12 11 10 10 12 12 9 8 11 10 11 10 8 8 8 8 7 7 6 5 3 2
10 14 15 14 15 15 15 14 15 15 15 15 15 15 14 13 15 15 13 15 13 12 14 12 11 10 10 10 9 8 7 6 5
13 15 16 17 19 19 18 18 18 18 19 18 18 19 18 18 16 18 15 19 16 15 16 15 12 12 12 12 11 10 10 9 8
12 15 17 16 17 20 22 22 23 24 23 23 21 21 20 20 20 19 17 22 18 18 16 18 17 15 15 14 13 13 12 11 11
15 13 14 16 17 20 22 24 24 26 26 25 23 21 21 23 16 18 19 23 21 21 18 20 22 19 17 17 16 15 14 13 13
17 19 19 16 15 17 19 21 23 25 27 27 26 26 26 25 25 20 20 21 22 23 20 20 21 21 20 19 18 17 17 16 15
17 18 20 21 21 21 20 20 22 25 26 27 29 30 28 27 26 26 26 24 23 22 23 21 22 22 22 22 20 20 17 18 17
19 19 19 21 23 24 23 22 23 22 22 25 28 30 32 31 30 30 27 27 27 26 25 24 22 24 24 24 24 25 23 21 19
16 16 15 15 16 19 21 23 24 24 23 23 25 26 28 33 30 30 28 26 30 29 28 26 24 23 26 26 26 25 26 26 24
18 20 21 21 21 19 20 24 25 27 28 29 29 27 26 27 31 33 33 32 30 29 32 30 29 27 26 28 28 27 27 25 26
17 17 20 22 22 24 23 22 22 26 26 27 29 31 32 30 27 29 31 32 33 34 30 30 32 30 28 27 28 26 26 27 27
13 16 21 22 20 20 20 21 22 23 22 28 29 28 27 27 28 28 30 31 28 30 36 34 33 33 29 30 31 29 25 27 28
16 16 16 16 17 19 21 21 23 21 20 18 17 5 17 22 27 27 29 31 31 31 31 34 37 35 33 33 32 32 31 31 28
10 12 15 18 16 19 21 22 22 19 22 21 11 4 4 6 13 16 18 23 25 27 23 23 23 27 30 34 36 40 42 37 32
13 14 15 16 17 18 20 21 20 20 17 20 20 21 18 4 8 23 22 17 13 16 18 18 20 21 24 27 29 30 31 30 31
13 14 14 16 19 21 22 21 20 20 19 16 15 18 20 19 5 6 10 20 17 19 17 17 16 16 17 17 18 17 16 17 20
Wind_Direction
301 238 225 227 252 236 185 200 225 177 174 185 194 180 184 153 122 78 276 136 125 138 122 119 106 104 97 88 81 81 78 75 76
360 214 215 226 257 253 239 230 245 252 256 243 208 198 205 210 247 219 220 233 146 147 132 135 118 124 118 108 95 86 76 74 75
318 247 219 245 260 259 251 246 249 249 247 248 242 216 202 208 210 203 215 240 184 167 168 157 159 156 151 140 140 112 96 73 66
290 272 257 259 262 263 259 254 253 256 253 247 243 235 224 227 223 212 219 233 217 199 196 199 198 186 189 192 192 177 180 144 102
293 282 273 268 267 269 267 263 260 259 258 255 250 246 237 231 229 222 238 228 231 202 208 210 207 207 211 211 221 226 227 230 242
292 290 282 278 271 270 271 269 267 264 262 261 257 253 249 243 231 222 235 240 237 221 221 223 217 213 219 228 232 235 239 239 239
294 291 286 280 279 271 270 270 268 263 261 260 260 258 255 252 246 228 238 232 237 232 228 228 228 222 225 228 237 238 239 244 248
302 296 291 285 276 266 269 271 267 264 262 261 260 258 255 257 251 241 250 228 240 232 235 229 239 237 229 232 238 240 240 242 247
293 297 298 298 293 282 279 277 274 269 263 262 259 252 255 251 250 243 251 234 240 238 243 225 237 241 237 236 234 238 244 245 248
304 294 292 298 301 293 294 290 280 275 276 269 259 255 254 250 243 246 247 241 246 243 243 236 229 234 237 238 239 237 244 247 250
307 306 300 296 295 294 299 302 296 292 282 275 270 262 253 254 252 244 243 245 246 246 245 240 234 233 238 238 241 248 249 249 252
308 309 308 303 301 300 298 300 295 296 295 290 283 277 270 260 258 250 245 243 242 245 245 245 245 238 236 240 241 245 248 248 253
308 309 310 312 308 303 298 298 298 294 292 294 291 289 282 271 260 261 252 250 247 242 243 242 246 250 243 240 241 242 247 250 246
304 305 305 305 303 303 307 303 300 296 295 293 290 290 290 281 273 269 264 254 247 245 242 238 244 245 247 244 244 245 247 251 257
317 311 307 307 309 303 299 307 304 295 290 291 290 289 287 288 281 273 269 265 257 249 239 237 242 238 243 246 247 248 253 258 255
323 317 316 309 306 308 308 309 312 310 308 297 289 289 291 290 284 282 272 268 256 257 252 238 238 237 245 247 246 246 253 257 259
313 321 341 342 326 314 306 305 307 309 315 307 296 296 297 278 275 273 272 269 264 262 257 248 240 243 249 244 245 246 262 275 259
326 325 324 320 323 315 315 313 308 301 305 304 287 308 254 332 310 318 292 278 272 268 268 264 255 251 253 251 253 256 264 268 258
334 326 317 316 317 313 311 312 310 309 300 303 297 294 283 273 299 302 304 307 304 284 273 264 258 255 254 257 265 267 266 260 265
326 327 330 320 325 324 323 315 308 300 301 302 301 300 304 293 245 284 297 300 305 302 285 279 276 278 275 276 279 282 280 276 275